Flag Weather past 2 weeks in Filderstadt, Baden-Württemberg, Germany

Now
51 °F

Passing clouds.


Feels Like: 51 °F
Forecast: 44 / 57 °F
Wind: 2 mph from East

Location: Stuttgart-Echterdingen

Current Time: Nov 23, 2014 at 1:35:49 PM

Latest Report: Nov 23, 2014 at 1:00 PM


Visibility: 28 mi

Pressure: 30.17 "Hg

Humidity: 80%

Dew point: 45 °F

Location of FilderstadtLocation

Historic Weather in Filderstadt — Graph

°F

Filderstadt temperature yesterday

Maximum temperature yesterday: 56 °F (at 2:00 PM)
Minimum temperature yesterday: 41 °F (at 11:00 PM)
Average temperature yesterday: 46 °F

Past Weeks' High & Low Weather Summary

 TemperatureHumidityPressure
High56 °F (Nov 22, 2:00 PM)100% (Nov 11, 7:00 AM)30.35 "Hg (Nov 11, 7:00 AM)
Low34 °F (Nov 23, 9:00 AM)55% (Nov 8, 3:00 PM)29.54 "Hg (Nov 16, 12:00 AM)
Average44 °F91%29.92 "Hg
* Reported Nov 8 12:00 Noon — Nov 23 12:00 Noon, Filderstadt, Weather by CustomWeather, © 2014

Note: Actual official high and low records may vary slightly from our data, if they occured in-between our weather recording intervals... More about our weather records

Advertising

Filderstadt weather history for previous 24 hours

 ConditionsComfort  
Time TempWeatherWind HumidityBarometerVisibility
12:00 PM
Nov 23
48 °FPassing clouds.2 mph83%30.20 "Hg16 mi
11:00 AM44 °FPassing clouds.1 mph88%30.23 "Hg11 mi
10:00 AM40 °FFog.No wind99%30.24 "Hg4 mi
9:00 AM34 °FFog.1 mph98%30.26 "Hg0 mi
8:00 AM34 °FFog.1 mph98%30.25 "Hg0 mi
7:00 AM36 °FFog.No wind99%30.23 "Hg1 mi
6:00 AM36 °FFog.1 mph99%30.23 "Hg0 mi
5:00 AM37 °FFog.1 mph99%30.22 "Hg0 mi
3:00 AM35 °FFog.1 mph97%30.24 "Hg1 mi
2:00 AM36 °FFog.1 mph99%30.24 "Hg1 mi
1:00 AM38 °FFog.1 mph98%30.23 "Hg2 mi
12:00 AM39 °FFog.1 mph97%30.23 "Hg3 mi
11:00 PM
Nov 22
41 °FClear.1 mph97%30.22 "Hg6 mi
9:00 PM44 °FPassing clouds.1 mph93%30.19 "Hg9 mi
8:00 PM46 °FOvercast.1 mph91%30.18 "Hg10 mi
7:00 PM47 °FOvercast.1 mph90%30.17 "Hg11 mi
6:00 PM48 °FOvercast.1 mph87%30.16 "Hg14 mi
5:00 PM50 °FOvercast.1 mph80%30.16 "Hg17 mi
4:00 PM54 °FOvercast.1 mph76%30.14 "Hg19 mi
3:00 PM56 °FPartly sunny.1 mph70%30.13 "Hg17 mi
2:00 PM56 °FScattered clouds.1 mph71%30.14 "Hg16 mi
1:00 PM55 °FScattered clouds.1 mph69%30.15 "Hg14 mi
Weather by CustomWeather, © 2014

See weather overviewHow to use our weather pages